Temperature
32 32 32 32 33 33 33 32 32 32 34 33 32 31 30 30 30 29 28 27 27 26 25 24 23 23 22 21 21 20 20 20 19 19 19 19 19 19 19 19 19 18 18 18
32 32 33 34 34 33 33 32 32 33 34 33 31 31 31 31 30 30 29 28 27 26 25 24 24 23 22 21 21 20 20 20 20 19 19 19 19 19 19 19 19 19 18 18
32 33 34 34 34 33 33 33 33 32 33 33 31 30 31 31 31 30 29 29 28 27 26 24 24 23 22 21 21 21 20 20 20 19 19 19 19 19 19 19 19 19 19 19
32 34 34 34 33 33 32 34 33 32 32 31 31 29 30 31 30 30 30 29 28 27 26 25 24 23 23 22 21 21 21 20 20 20 19 19 19 19 19 19 19 19 19 19
33 34 34 33 33 34 33 34 33 32 31 31 31 30 30 31 30 31 30 29 28 28 27 25 25 24 23 22 21 21 21 20 20 20 20 20 20 19 19 19 19 19 19 19
34 35 34 34 34 34 34 33 32 31 30 29 31 30 29 31 31 31 30 30 29 28 27 26 25 24 23 22 22 21 21 21 21 20 20 20 20 20 20 19 19 19 19 19
32 34 35 35 34 34 32 30 29 29 29 30 31 31 31 32 32 32 31 30 30 29 28 27 25 24 23 23 22 21 21 21 21 21 20 20 20 20 19 19 19 19 19 19
31 32 34 34 34 33 32 31 29 28 29 30 31 31 31 32 32 32 32 31 30 29 28 27 26 25 24 23 22 22 21 21 21 21 20 20 20 20 19 19 19 19 19 19
31 32 34 35 35 34 32 32 32 31 30 29 30 31 31 32 32 32 32 31 30 29 28 27 26 25 24 23 22 22 21 21 21 21 21 20 20 20 19 19 19 19 19 19
31 30 33 34 34 34 34 33 32 31 29 28 29 30 30 30 31 32 31 30 30 29 28 28 27 26 25 24 23 22 21 21 21 21 20 20 20 20 20 19 19 19 19 19
31 30 31 33 32 32 33 32 32 31 30 29 28 29 31 30 31 31 31 30 30 29 28 27 27 26 25 24 23 22 22 21 21 20 20 20 20 20 20 20 19 19 19 19
32 31 30 31 33 34 33 33 32 30 29 29 29 29 32 31 32 32 31 30 29 29 28 27 26 26 25 24 23 22 22 21 21 20 20 20 20 20 20 20 19 19 19 19
30 30 29 30 31 32 32 33 32 32 31 29 28 29 32 31 32 31 31 30 29 29 28 27 26 25 24 24 23 22 22 21 21 20 20 20 20 20 20 19 19 19 19 19
29 29 28 28 29 30 31 32 32 31 30 30 29 30 30 31 31 31 30 29 29 28 27 26 25 24 24 23 23 22 22 21 21 20 20 20 20 20 20 19 19 19 19 19
30 28 29 29 30 30 31 31 32 31 31 30 30 30 30 31 30 30 29 29 28 27 26 25 24 24 23 23 23 22 22 21 21 21 20 20 20 19 19 19 19 19 18 18
29 27 28 28 30 30 30 31 31 31 31 31 30 30 30 29 29 28 28 28 27 26 26 25 24 23 23 22 22 22 22 21 21 21 20 20 20 19 19 19 19 18 18 18
28 27 27 27 29 29 29 30 30 31 31 30 29 29 29 29 28 27 27 26 26 25 25 24 24 23 23 22 22 21 21 21 21 20 20 20 20 19 19 19 18 18 18 18
26 26 26 27 27 26 29 31 31 30 30 29 29 29 28 28 27 26 25 25 24 24 24 24 23 23 22 22 22 21 21 21 20 20 20 20 19 19 19 18 18 18 18 17
27 25 26 26 26 27 29 30 30 29 28 29 28 28 27 27 27 25 24 23 23 23 23 23 23 23 22 22 21 21 21 20 20 20 19 19 19 19 19 18 18 18 17 17
26 25 25 25 25 26 27 29 29 29 27 27 27 27 26 26 26 24 23 22 22 22 22 22 22 22 21 21 21 21 20 20 20 19 19 19 19 19 18 18 18 18 17 17
25 25 25 25 25 25 26 28 28 27 25 26 26 26 25 24 24 23 22 22 21 21 21 21 21 21 20 20 20 20 20 20 19 19 19 18 18 18 18 18 18 17 17 17
25 25 24 25 24 24 26 27 25 24 24 25 25 24 24 23 23 22 21 21 21 20 20 20 20 20 20 20 20 20 19 19 19 19 18 18 18 18 18 18 17 17 17 17
25 25 24 24 24 24 24 24 23 23 24 24 24 23 23 22 22 21 21 20 20 20 19 19 19 19 19 19 19 19 19 19 19 18 18 18 18 18 17 17 17 17 17 16
25 24 23 23 24 24 24 23 23 23 23 23 23 23 22 22 21 20 20 20 19 19 19 19 19 18 18 18 18 19 18 18 18 18 18 18 18 17 17 17 17 17 17 16
23 24 23 22 23 23 23 23 22 22 22 22 22 22 21 21 20 20 20 19 19 19 18 18 18 18 18 18 18 18 18 18 18 18 18 17 17 17 17 17 17 16 16 16
23 22 22 22 22 22 22 22 22 22 21 21 21 21 20 20 20 19 19 19 18 18 18 18 18 17 17 17 17 18 18 18 17 17 17 17 17 17 17 17 17 16 16 16
Wind_Speed
11 10 9 9 9 7 5 3 4 4 6 5 6 10 11 11 11 12 12 12 12 12 13 13 12 12 11 10 9 7 6 5 4 2 2 2 2 2 2 2 4 3 2 1
10 12 11 8 6 6 6 4 5 3 5 4 4 6 9 11 11 12 13 13 13 13 13 13 12 11 11 10 9 7 7 6 5 3 2 2 2 2 2 2 3 3 2 1
13 10 8 8 8 7 7 7 4 3 3 5 5 5 7 8 9 10 12 12 14 14 14 13 12 11 11 11 10 8 6 6 5 4 3 2 1 1 1 3 3 2 3 2
13 12 9 8 8 7 7 5 4 6 6 4 4 4 7 10 10 11 11 11 12 14 14 14 14 12 12 11 11 8 7 6 5 4 4 4 3 2 2 2 2 2 2 2
12 11 10 8 8 8 7 4 4 5 7 7 6 5 5 9 10 11 12 11 11 13 15 14 14 13 12 12 11 10 8 7 5 5 4 3 3 2 2 2 2 2 2 2
12 11 10 9 8 8 6 5 6 6 7 8 7 6 4 6 8 10 12 12 12 13 14 14 13 13 11 12 11 11 9 7 6 6 5 4 3 2 1 1 2 2 2 3
14 14 12 10 10 8 6 5 5 5 6 7 5 5 3 5 7 10 12 13 13 13 13 13 14 13 12 11 11 10 10 8 8 7 5 5 4 3 3 3 3 3 2 2
14 13 13 10 10 8 9 9 7 7 7 5 5 5 3 5 5 7 10 11 12 12 13 13 13 13 13 12 10 10 10 9 8 7 6 5 5 4 3 4 3 2 1 1
10 10 10 10 9 10 9 10 10 9 10 8 5 4 4 6 7 7 9 10 10 10 12 13 13 13 12 12 11 11 11 9 8 8 7 6 5 5 3 3 3 2 2 2
10 9 9 8 9 11 12 10 8 7 6 7 6 5 4 6 7 7 9 10 9 8 8 11 12 11 11 11 10 10 10 10 8 7 6 6 5 4 4 3 3 2 1 1
11 11 10 9 11 11 11 11 9 7 6 7 7 4 3 5 7 8 10 10 9 9 8 8 9 10 11 10 10 10 10 9 8 7 6 5 6 6 5 4 3 3 2 2
9 9 10 12 10 10 11 11 9 7 6 6 7 5 3 4 5 5 7 8 9 8 8 8 8 7 8 9 9 9 8 9 8 7 7 6 5 5 5 4 4 4 3 3
5 7 9 11 10 9 10 11 10 10 8 6 7 5 4 5 6 6 6 7 6 6 7 7 6 6 5 6 7 8 8 8 8 8 7 6 5 5 5 4 4 3 3 2
4 8 11 11 7 7 10 12 11 10 8 7 7 5 2 3 5 6 7 7 7 6 6 6 6 5 4 4 5 6 7 7 8 7 7 7 6 5 4 4 4 3 3 3
7 10 11 13 13 11 11 11 11 11 11 8 5 5 4 1 4 5 6 6 7 7 6 5 5 4 4 4 4 5 6 5 6 6 7 6 5 4 4 4 4 3 3 3
7 8 10 13 14 12 14 13 12 12 10 9 6 5 1 4 6 5 5 5 5 5 4 5 5 5 4 3 3 4 5 5 5 5 5 5 5 5 5 4 4 3 3 2
6 6 9 12 13 13 15 13 12 9 7 6 5 2 1 3 5 5 4 5 4 3 3 3 4 5 4 4 4 3 4 5 5 5 4 5 5 5 4 5 4 4 3 3
6 6 7 10 11 14 9 6 6 5 2 1 1 2 2 3 5 5 5 6 5 4 3 2 2 4 4 4 4 3 4 5 5 5 5 5 5 4 4 4 4 3 3 2
8 7 8 9 13 13 8 6 6 6 3 0 1 2 2 2 4 5 7 7 5 4 3 2 1 2 2 2 2 3 3 5 5 5 4 4 5 5 4 5 4 3 3 3
11 8 9 10 12 11 6 4 4 4 4 1 1 2 3 2 2 3 7 7 6 5 4 3 2 2 2 2 2 3 3 4 4 4 5 4 5 5 5 5 4 4 3 3
12 11 13 13 13 6 4 6 6 7 1 4 3 2 2 3 3 4 6 5 5 4 4 5 4 3 2 1 2 2 2 2 3 3 4 4 4 5 4 4 3 3 3 3
10 10 11 11 12 8 2 3 2 3 4 4 5 4 4 5 5 5 5 5 4 4 5 4 4 3 2 2 2 1 1 1 2 3 3 4 4 5 4 4 3 3 3 4
8 6 4 4 3 3 4 5 5 3 3 3 3 4 4 4 4 5 4 4 4 4 3 3 4 3 3 2 1 0 1 1 1 2 3 3 4 4 3 4 4 4 4 4
6 4 4 4 2 1 2 3 3 3 2 2 3 3 3 3 3 3 2 3 2 2 3 3 3 3 3 2 1 1 1 2 2 3 3 3 4 4 4 4 4 5 5 5
6 4 5 5 5 4 1 1 1 2 2 2 3 2 2 2 1 1 1 1 1 2 2 2 2 2 2 2 2 2 1 1 2 3 3 3 4 4 3 4 3 5 5 5
7 6 5 5 3 4 2 2 1 0 0 1 1 2 2 1 2 1 1 1 1 1 1 2 2 3 2 3 3 3 2 1 2 3 3 4 4 3 3 4 3 2 2 3
Wind_Direction
227 234 236 224 226 237 223 214 230 199 161 170 152 148 166 166 168 163 166 166 168 166 162 158 158 153 150 147 148 152 157 152 153 168 180 169 163 168 147 143 134 143 148 160
235 237 244 247 238 240 253 235 237 214 168 152 156 162 169 172 177 174 171 172 169 166 163 159 160 160 157 153 152 156 165 162 172 172 189 184 174 185 170 132 137 164 164 202
239 239 232 236 244 240 247 253 252 252 225 167 175 187 174 176 170 179 174 174 171 169 163 161 166 166 163 160 160 163 162 163 178 167 189 203 174 230 153 146 155 181 188 197
241 244 242 237 252 253 247 254 275 273 264 229 214 207 185 176 178 179 176 176 171 165 165 166 170 170 169 165 162 156 158 165 173 178 198 202 192 194 182 184 153 173 189 195
240 240 245 237 243 254 254 255 271 274 274 268 231 238 201 176 180 180 172 169 171 170 168 169 172 169 169 167 164 162 159 166 169 185 192 206 211 202 187 169 160 189 190 200
249 246 243 248 246 250 259 273 268 255 257 252 237 239 209 187 179 175 167 170 173 169 168 167 166 163 169 170 168 165 161 166 171 182 191 199 219 218 201 193 184 202 198 200
240 240 233 233 240 237 234 251 263 260 241 242 226 239 174 169 174 173 168 169 170 166 163 165 166 167 171 171 169 164 162 170 176 181 191 194 208 211 208 223 218 223 209 186
235 233 225 224 234 237 235 228 236 250 260 249 222 221 171 150 169 159 156 161 162 164 165 168 169 170 172 173 169 167 163 172 178 184 192 193 198 208 216 215 233 233 237 192
251 235 224 222 229 240 243 245 250 254 264 271 255 191 180 164 175 168 163 156 156 162 166 166 171 171 172 174 172 173 166 171 177 185 187 188 195 211 228 214 221 237 249 228
263 272 249 219 226 235 249 258 266 257 266 264 271 247 198 165 176 162 161 154 150 152 163 165 167 166 170 173 172 170 167 172 177 185 189 190 192 202 223 224 214 219 231 279
245 254 256 235 228 237 241 244 250 266 269 262 263 271 151 181 170 171 164 156 153 159 169 160 156 161 166 169 170 166 168 167 173 183 186 191 184 193 203 205 206 213 222 233
238 250 257 251 245 243 248 252 246 252 261 269 274 270 134 160 145 152 147 140 149 156 154 149 149 154 161 167 170 166 170 172 177 182 182 191 188 188 196 198 202 205 213 216
287 260 252 246 234 233 246 252 254 253 254 253 256 257 161 137 147 147 133 135 137 137 135 137 140 143 158 165 164 167 173 177 180 183 187 186 196 195 195 196 194 201 209 217
266 259 259 258 265 264 253 250 250 256 258 249 242 239 200 143 148 140 137 142 140 132 123 130 131 138 145 156 158 165 174 180 178 177 186 188 193 194 192 194 193 196 200 205
242 252 258 262 270 275 266 259 248 250 258 258 247 246 248 142 120 126 136 137 132 127 129 132 137 137 144 155 161 167 173 173 174 174 184 186 185 185 187 194 194 192 206 215
245 256 263 263 261 266 269 262 252 248 254 251 250 255 321 68 76 87 94 114 122 130 143 145 144 146 152 158 169 177 168 166 165 173 183 177 177 183 186 193 192 196 204 207
247 255 258 259 264 261 256 257 254 252 252 254 248 273 92 83 81 70 72 89 87 98 128 153 161 160 166 170 169 182 174 166 171 177 182 174 177 186 190 199 194 202 202 202
253 267 256 257 258 254 256 266 250 251 259 352 97 76 72 104 103 74 69 76 74 61 62 71 156 163 168 173 174 180 182 171 176 182 186 177 180 189 189 198 201 196 195 201
232 243 254 251 249 251 252 249 247 241 246 85 131 93 67 73 99 75 67 66 55 50 50 60 65 137 133 158 160 163 179 177 183 188 187 184 184 190 194 197 196 191 189 196
217 220 240 250 253 252 258 286 289 256 232 102 91 69 47 344 254 82 58 55 46 37 39 38 56 79 87 104 145 166 189 185 187 190 186 186 187 194 196 197 195 197 192 201
210 215 230 243 252 248 287 305 280 241 225 72 72 80 71 40 38 83 75 63 63 50 47 46 47 68 85 84 125 156 175 191 192 184 178 184 190 197 196 190 190 187 201 210
226 224 228 239 247 241 322 287 321 65 58 60 62 67 73 86 88 82 72 65 62 56 47 40 43 56 79 91 107 113 154 176 176 175 181 187 190 211 203 181 190 203 216 213
236 243 250 257 249 83 70 80 79 76 64 50 63 77 92 88 84 79 68 65 56 41 38 23 29 38 54 82 82 43 192 182 201 191 191 194 197 208 193 187 203 215 217 223
230 240 259 276 262 86 66 65 80 73 58 38 64 83 93 96 89 69 49 46 48 25 25 20 19 20 26 27 316 266 245 195 212 214 205 207 211 210 194 193 206 220 223 227
284 270 245 241 257 279 313 359 35 68 49 37 44 50 69 72 55 50 40 39 33 16 15 11 359 357 6 357 335 307 302 257 239 241 229 225 227 213 201 209 215 220 224 231
274 274 263 258 274 271 270 285 261 244 301 353 357 358 9 335 311 318 349 21 12 335 344 341 332 331 334 337 339 338 329 302 267 250 243 243 236 218 217 220 247 332 261 224
Height
1475 1478 1479 1476 1472 1472 1473 1478 1480 1476 1469 1473 1479 1484 1487 1489 1493 1497 1502 1506 1510 1513 1517 1520 1523 1525 1527 1528 1530 1532 1533 1534 1536 1537 1538 1539 1540 1541 1541 1542 1542 1542 1542 1543
1475 1477 1468 1465 1466 1469 1472 1479 1480 1473 1467 1473 1481 1483 1482 1485 1489 1493 1498 1502 1506 1511 1515 1518 1521 1524 1526 1527 1529 1531 1532 1533 1535 1536 1538 1539 1540 1541 1541 1542 1542 1542 1542 1542
1476 1469 1464 1466 1467 1470 1473 1476 1475 1477 1470 1471 1481 1488 1483 1484 1487 1491 1494 1498 1502 1507 1511 1515 1519 1522 1524 1526 1528 1530 1531 1533 1534 1536 1537 1539 1539 1540 1541 1541 1541 1542 1542 1542
1469 1463 1463 1466 1468 1468 1476 1468 1470 1475 1480 1485 1483 1500 1488 1483 1485 1487 1491 1495 1499 1504 1509 1513 1517 1520 1523 1525 1527 1528 1530 1532 1533 1535 1536 1537 1538 1539 1540 1541 1541 1541 1541 1541
1466 1462 1463 1467 1467 1465 1468 1465 1470 1475 1482 1486 1483 1493 1491 1480 1486 1485 1488 1493 1497 1501 1506 1510 1514 1517 1521 1524 1525 1527 1529 1530 1532 1533 1535 1536 1538 1539 1540 1540 1540 1540 1541 1541
1461 1459 1460 1462 1461 1462 1463 1468 1473 1477 1484 1498 1486 1491 1496 1481 1482 1482 1485 1490 1494 1498 1503 1508 1512 1515 1519 1522 1524 1526 1527 1529 1530 1532 1533 1535 1536 1537 1538 1539 1539 1540 1540 1540
1467 1460 1457 1459 1463 1463 1467 1483 1500 1506 1504 1498 1478 1484 1486 1473 1472 1476 1480 1486 1491 1495 1500 1505 1509 1513 1517 1520 1522 1524 1525 1527 1528 1530 1532 1533 1535 1536 1537 1538 1539 1539 1539 1539
1475 1472 1457 1456 1461 1467 1468 1478 1501 1516 1509 1493 1479 1485 1478 1467 1471 1474 1478 1483 1488 1493 1498 1502 1507 1510 1514 1517 1520 1522 1523 1525 1527 1528 1530 1532 1533 1534 1536 1537 1538 1538 1538 1538
1470 1470 1454 1453 1456 1460 1469 1471 1469 1484 1490 1497 1488 1481 1473 1468 1470 1473 1477 1482 1486 1491 1495 1500 1504 1508 1512 1515 1517 1520 1521 1523 1525 1526 1528 1530 1531 1532 1534 1535 1536 1536 1537 1537
1463 1472 1457 1453 1455 1457 1459 1463 1470 1482 1502 1510 1498 1488 1483 1475 1472 1473 1477 1481 1486 1490 1494 1499 1502 1506 1509 1513 1516 1518 1519 1521 1522 1525 1526 1528 1529 1531 1532 1533 1534 1535 1535 1535
1461 1473 1465 1459 1462 1465 1463 1465 1469 1475 1482 1500 1509 1495 1469 1470 1470 1472 1475 1480 1484 1489 1493 1497 1501 1504 1508 1511 1513 1516 1517 1519 1521 1522 1524 1526 1527 1529 1530 1531 1532 1532 1533 1533
1461 1466 1472 1464 1454 1452 1457 1461 1466 1484 1488 1487 1496 1492 1463 1467 1469 1471 1474 1479 1484 1488 1492 1496 1500 1503 1506 1509 1511 1513 1515 1517 1518 1520 1522 1524 1525 1527 1528 1528 1529 1530 1531 1531
1464 1470 1482 1478 1469 1460 1460 1458 1460 1465 1473 1485 1496 1490 1463 1467 1469 1472 1476 1480 1485 1488 1492 1495 1499 1502 1504 1507 1509 1511 1513 1515 1516 1518 1520 1521 1523 1524 1525 1526 1527 1528 1529 1529
1468 1472 1479 1485 1476 1467 1466 1462 1460 1466 1477 1482 1483 1480 1470 1469 1470 1473 1477 1481 1485 1489 1492 1495 1498 1501 1503 1505 1507 1509 1511 1513 1515 1516 1518 1519 1520 1522 1523 1524 1525 1526 1526 1527
1467 1474 1472 1469 1464 1464 1464 1463 1460 1465 1467 1475 1476 1475 1470 1469 1472 1474 1478 1481 1485 1489 1492 1495 1498 1500 1502 1504 1506 1508 1510 1511 1513 1514 1515 1517 1518 1520 1521 1522 1523 1524 1524 1525
1467 1474 1475 1473 1466 1464 1465 1460 1459 1461 1462 1466 1470 1473 1469 1471 1474 1478 1480 1483 1485 1489 1492 1495 1497 1500 1501 1503 1505 1506 1508 1509 1511 1512 1514 1515 1516 1518 1518 1520 1521 1521 1522 1522
1469 1475 1480 1480 1469 1468 1473 1463 1461 1462 1461 1465 1473 1474 1471 1473 1477 1480 1482 1484 1487 1490 1493 1495 1497 1499 1500 1502 1503 1504 1506 1508 1509 1510 1512 1513 1514 1515 1516 1517 1518 1519 1519 1519
1474 1477 1478 1478 1480 1490 1468 1454 1455 1461 1464 1465 1469 1472 1473 1476 1479 1482 1484 1486 1488 1490 1493 1494 1496 1498 1499 1501 1502 1503 1505 1506 1507 1509 1510 1511 1512 1514 1514 1515 1515 1516 1517 1517
1471 1477 1480 1481 1483 1476 1465 1457 1458 1463 1469 1468 1470 1472 1475 1477 1479 1483 1485 1487 1490 1491 1493 1494 1495 1497 1498 1499 1500 1501 1503 1504 1505 1506 1508 1508 1510 1511 1512 1512 1513 1513 1514 1514
1470 1474 1480 1479 1485 1485 1472 1460 1459 1463 1474 1470 1471 1474 1477 1478 1481 1486 1488 1489 1490 1492 1493 1494 1495 1496 1496 1497 1498 1499 1501 1502 1503 1504 1505 1506 1507 1508 1509 1510 1510 1511 1511 1511
1471 1475 1479 1480 1481 1476 1467 1463 1463 1476 1480 1474 1474 1476 1479 1482 1486 1488 1488 1490 1491 1493 1493 1493 1494 1495 1495 1496 1497 1497 1498 1500 1501 1502 1503 1504 1505 1506 1506 1507 1508 1508 1508 1508
1468 1472 1476 1476 1482 1483 1469 1468 1472 1477 1476 1476 1477 1479 1481 1484 1486 1487 1489 1490 1491 1492 1492 1493 1493 1494 1495 1495 1495 1495 1497 1498 1499 1500 1501 1501 1502 1504 1505 1505 1505 1505 1505 1506
1464 1467 1469 1474 1477 1473 1472 1474 1476 1477 1478 1479 1480 1481 1482 1484 1487 1488 1490 1491 1492 1493 1493 1493 1493 1493 1494 1494 1494 1495 1495 1497 1497 1498 1498 1499 1500 1501 1502 1502 1502 1502 1502 1503
1464 1465 1469 1473 1472 1472 1473 1475 1476 1478 1480 1480 1481 1482 1484 1485 1487 1489 1490 1491 1492 1493 1493 1493 1493 1493 1493 1493 1494 1494 1495 1495 1495 1496 1496 1497 1498 1498 1499 1499 1499 1499 1499 1499
1467 1466 1469 1473 1474 1474 1475 1477 1478 1479 1480 1481 1482 1483 1485 1486 1487 1489 1490 1491 1491 1492 1492 1492 1492 1492 1491 1492 1492 1493 1493 1493 1493 1493 1494 1495 1495 1495 1495 1495 1495 1495 1496 1496
1469 1470 1471 1473 1474 1475 1477 1478 1479 1480 1481 1482 1483 1484 1485 1486 1487 1488 1489 1489 1490 1490 1491 1491 1491 1491 1490 1490 1490 1490 1490 1490 1490 1491 1491 1492 1492 1492 1492 1492 1492 1492 1493 1493